METEOR 2-7 DEB, 28602

Orbit data source: Space-Track

METEOR 2-7 DEB, 28602 is space debris in LEO originally from a launch on Thu, 14 May 1981 UTC launched from the Plesetsk Missile And Space Complex (PKMTR). Debris objects in space refer to the collection of defunct objects orbiting the Earth. Examples of debris include non-operational satellites, rocket bodies, and fragments generated from explosions, collisions, or faulty payload assembly.

Loading next visibility...
METEOR 2-7 DEB details
Identifier
28602, 1981-043L
Orbit
LEO
Last TLE update2 months ago
Origin
Flag of CISKVR (CIS)
ManufacturerUnknown
MissionSpacecraft
Bus & MotorUnknown
MassUnknown
Launch date (UTC)
1981-05-14 (44 years ago)
Launch vehicleUnknown
Launch site
Plesetsk Missile And Space Complex (PKMTR)
Object type
Payload
Rocket body
Debris
Shape & HBRUnknown
Radar Cross SectionSmall (<0.1 m²)

Expand to show TLE details & history

TLE from 2 months ago
0 METEOR 2-7 DEB
1 28602U 81043L   24315.08018878  .00122224  00000-0  19029-1 0  9994
2 28602  81.2464  85.4260 0022955  40.0343 320.2549 14.72085623 67597
Epoch: 2024-11-10T01:55Z
Definitive object data (Epoch: 2024-11-10T01:55:28.31Z)
Latitude0.00002°
Longitude6.8331°
Altitude645.002 km
Speed7.542 km/s
True Right ascension05h 41m 42s
True Declination0° 00' 00"
Sunlit
Object was in full shadow at TLE epoch
Visualization TLE readout
Latitude-2.02096°
Longitude136.64397°
Altitude611.703 km
Speed7.556 km/s
Apparent Right ascension14h 48m 39s
Apparent Declination-63° 57' 31"
Sunlit
Object is in daylight
Visualization observer readout
Local Sidereal Time14:09:02
Azimuth175.534° S
Elevation-14.171°
Doppler factor1
Orbital elements
Apogee altitude667.646 km
Perigee altitude635.373 km
Semi-major axis7,029.646 km
Eccentricity0.0022955
Inclination81.2464°
RAAN85.426°
Arg. of periapsis40.0343°
True anomaly320.08634°
Mean anomaly320.2549°
Eccentric anomaly320.17066°
Mean motion3.6825 °/min
BSTAR0.019029
Orbital period97.76 mins
Loading maneuver chart data...
Loading historical data...
Loading historical data...
Loading historical data...
Loading historical data...
Loading historical data...
Loading historical data...
Loading historical data...

METEOR 2-7 DEB Visibility forecast

Observer location: undefined°, undefined

Span
Click to sort rows by Start time (UTC) header in descending order
Start Az.
Max El. time (UTC)
Max El. Az.
Max El.
End time (UTC)
End Az.
8 mins2024-12-27 03:01:08.622Z171.597° S2024-12-27 03:05:08.622Z84.916° E39.411°2024-12-27 03:09:08.622Z18.596° NNE
|